timestamp,wind_dir_avg,wind_spd_max_dir,wind_spd_avg,wind_spd_gust,battery_voltage,lat,long
2018-02-20 00:00:00+00:00,268.0,268.0,5.66,6.37,,47.59359,-54.27349
2018-02-20 00:10:00+00:00,260.0,255.0,5.86,6.25,,47.59359,-54.27349
2018-02-20 00:20:00+00:00,264.0,260.0,6.01,6.45,,47.59359,-54.27349
2018-02-20 00:30:00+00:00,265.0,266.0,5.29,6.14,,47.59359,-54.27349
2018-02-20 00:40:00+00:00,270.0,270.0,5.34,6.25,,47.59359,-54.27349
2018-02-20 00:50:00+00:00,245.0,246.0,2.91,3.35,,47.59359,-54.27349
2018-02-20 01:00:00+00:00,265.0,262.0,3.2,3.91,,47.59359,-54.27349
2018-02-20 01:10:00+00:00,269.0,274.0,6.05,6.46,,47.59359,-54.27349
2018-02-20 01:20:00+00:00,266.0,268.0,6.12,6.87,,47.59359,-54.27349
2018-02-20 01:30:00+00:00,267.0,274.0,5.95,6.64,,47.59359,-54.27349
2018-02-20 01:40:00+00:00,269.0,267.0,7.58,8.62,,47.59359,-54.27349
2018-02-20 01:50:00+00:00,263.0,262.0,6.91,7.55,,47.59359,-54.27349
2018-02-20 02:00:00+00:00,265.0,267.0,6.26,7.14,,47.59359,-54.27349
2018-02-20 02:10:00+00:00,276.0,275.0,8.28,9.49,,47.59359,-54.27349
2018-02-20 02:20:00+00:00,281.0,275.0,9.95,11.74,,47.59359,-54.27349
2018-02-20 02:30:00+00:00,272.0,272.0,11.39,13.81,,47.59359,-54.27349
2018-02-20 02:40:00+00:00,274.0,273.0,10.36,13.4,,47.59359,-54.27349
2018-02-20 02:50:00+00:00,273.0,273.0,10.4,13.88,,47.59359,-54.27349
2018-02-20 03:00:00+00:00,263.0,264.0,10.61,14.6,,47.59359,-54.27349
2018-02-20 03:10:00+00:00,261.0,261.0,9.2,13.36,,47.59359,-54.27349
2018-02-20 03:20:00+00:00,255.0,260.0,9.3,13.4,,47.59359,-54.27349
2018-02-20 03:30:00+00:00,256.0,257.0,9.08,12.38,,47.59359,-54.27349
2018-02-20 03:40:00+00:00,264.0,264.0,8.79,10.84,,47.59359,-54.27349
2018-02-20 03:50:00+00:00,261.0,264.0,10.34,14.78,,47.59359,-54.27349
2018-02-20 04:00:00+00:00,262.0,266.0,8.43,9.03,,47.59359,-54.27349
2018-02-20 04:10:00+00:00,265.0,261.0,9.38,12.73,,47.59359,-54.27349
2018-02-20 04:20:00+00:00,261.0,263.0,8.81,12.54,,47.59359,-54.27349
2018-02-20 04:30:00+00:00,267.0,267.0,9.16,10.71,,47.59359,-54.27349
2018-02-20 04:40:00+00:00,268.0,268.0,8.34,9.23,,47.59359,-54.27349
2018-02-20 04:50:00+00:00,257.0,256.0,8.12,11.6,,47.59359,-54.27349
2018-02-20 05:00:00+00:00,248.0,254.0,9.26,11.47,,47.59359,-54.27349
2018-02-20 05:10:00+00:00,257.0,261.0,9.58,13.54,,47.59359,-54.27349
2018-02-20 05:20:00+00:00,257.0,260.0,8.7,10.78,,47.59359,-54.27349
2018-02-20 05:30:00+00:00,260.0,260.0,8.82,9.86,,47.59359,-54.27349
2018-02-20 05:40:00+00:00,254.0,256.0,8.81,10.81,,47.59359,-54.27349
2018-02-20 05:50:00+00:00,256.0,260.0,10.01,14.89,,47.59359,-54.27349
2018-02-20 06:00:00+00:00,249.0,246.0,6.86,8.85,,47.59359,-54.27349
2018-02-20 06:10:00+00:00,249.0,243.0,7.73,8.55,,47.59359,-54.27349
2018-02-20 06:20:00+00:00,244.0,242.0,8.43,10.75,,47.59359,-54.27349
2018-02-20 06:30:00+00:00,242.0,250.0,9.93,15.32,,47.59359,-54.27349
2018-02-20 06:40:00+00:00,233.0,236.0,9.47,12.1,,47.59359,-54.27349
2018-02-20 06:50:00+00:00,243.0,248.0,8.98,11.7,,47.59359,-54.27349
2018-02-20 07:00:00+00:00,238.0,235.0,8.53,9.86,,47.59359,-54.27349
2018-02-20 07:10:00+00:00,246.0,237.0,7.52,8.99,,47.59359,-54.27349
2018-02-20 07:20:00+00:00,243.0,248.0,9.41,12.36,,47.59359,-54.27349
2018-02-20 07:30:00+00:00,248.0,254.0,8.08,9.56,,47.59359,-54.27349
2018-02-20 07:40:00+00:00,247.0,253.0,7.08,8.72,,47.59359,-54.27349
2018-02-20 07:50:00+00:00,240.0,234.0,7.47,9.7,,47.59359,-54.27349
2018-02-20 08:00:00+00:00,241.0,247.0,8.72,9.9,,47.59359,-54.27349
2018-02-20 08:10:00+00:00,238.0,235.0,8.0,9.72,,47.59359,-54.27349
2018-02-20 08:20:00+00:00,243.0,249.0,8.39,10.47,,47.59359,-54.27349
2018-02-20 08:30:00+00:00,244.0,239.0,8.17,9.55,,47.59359,-54.27349
2018-02-20 08:40:00+00:00,244.0,238.0,8.37,10.33,,47.59359,-54.27349
2018-02-20 08:50:00+00:00,249.0,258.0,10.6,15.33,,47.59359,-54.27349
2018-02-20 09:00:00+00:00,253.0,256.0,10.37,15.06,,47.59359,-54.27349
2018-02-20 09:10:00+00:00,255.0,259.0,9.11,13.94,,47.59359,-54.27349
2018-02-20 09:20:00+00:00,254.0,254.0,9.08,10.97,,47.59359,-54.27349
2018-02-20 09:30:00+00:00,247.0,256.0,12.16,16.7,,47.59359,-54.27349
2018-02-20 09:40:00+00:00,253.0,255.0,10.83,14.98,,47.59359,-54.27349
2018-02-20 09:50:00+00:00,252.0,258.0,10.29,14.74,,47.59359,-54.27349
2018-02-20 10:00:00+00:00,246.0,255.0,8.96,14.01,,47.59359,-54.27349
2018-02-20 10:10:00+00:00,238.0,241.0,8.15,9.35,,47.59359,-54.27349
2018-02-20 10:20:00+00:00,246.0,242.0,8.55,10.01,,47.59359,-54.27349
2018-02-20 10:30:00+00:00,243.0,242.0,9.55,11.33,,47.59359,-54.27349
2018-02-20 10:40:00+00:00,248.0,249.0,8.43,9.85,,47.59359,-54.27349
2018-02-20 10:50:00+00:00,249.0,251.0,8.84,9.82,,47.59359,-54.27349
2018-02-20 11:00:00+00:00,250.0,257.0,9.17,10.03,,47.59359,-54.27349
2018-02-20 11:10:00+00:00,248.0,252.0,8.87,10.57,,47.59359,-54.27349
2018-02-20 11:20:00+00:00,252.0,261.0,8.84,10.28,,47.59359,-54.27349
2018-02-20 11:30:00+00:00,254.0,257.0,8.45,9.97,,47.59359,-54.27349
2018-02-20 11:40:00+00:00,252.0,255.0,9.29,11.83,,47.59359,-54.27349
2018-02-20 11:50:00+00:00,252.0,255.0,9.62,11.77,,47.59359,-54.27349
2018-02-20 12:00:00+00:00,251.0,255.0,9.59,12.33,,47.59359,-54.27349
2018-02-20 12:10:00+00:00,250.0,250.0,8.35,11.05,,47.59359,-54.27349
2018-02-20 12:20:00+00:00,251.0,252.0,8.27,9.21,,47.59359,-54.27349
2018-02-20 12:30:00+00:00,255.0,259.0,8.58,9.42,,47.59359,-54.27349
2018-02-20 12:40:00+00:00,256.0,258.0,7.68,8.6,,47.59359,-54.27349
2018-02-20 12:50:00+00:00,255.0,260.0,7.3,8.12,,47.59359,-54.27349
2018-02-20 13:00:00+00:00,256.0,252.0,7.49,8.66,,47.59359,-54.27349
2018-02-20 13:10:00+00:00,259.0,255.0,7.05,7.64,,47.59359,-54.27349
2018-02-20 13:20:00+00:00,252.0,255.0,6.87,7.62,,47.59359,-54.27349
2018-02-20 13:30:00+00:00,253.0,254.0,7.8,8.45,,47.59359,-54.27349
2018-02-20 13:40:00+00:00,251.0,251.0,7.91,8.64,,47.59359,-54.27349
2018-02-20 13:50:00+00:00,249.0,253.0,7.37,8.5,,47.59359,-54.27349
2018-02-20 14:00:00+00:00,246.0,248.0,7.32,8.27,,47.59359,-54.27349
2018-02-20 14:10:00+00:00,249.0,253.0,7.1,8.04,,47.59359,-54.27349
2018-02-20 14:20:00+00:00,249.0,253.0,5.67,6.12,,47.59359,-54.27349
2018-02-20 14:30:00+00:00,253.0,251.0,6.29,7.17,,47.59359,-54.27349
2018-02-20 14:40:00+00:00,251.0,253.0,7.5,8.38,,47.59359,-54.27349
2018-02-20 14:50:00+00:00,254.0,246.0,6.29,7.06,,47.59359,-54.27349
2018-02-20 15:00:00+00:00,257.0,261.0,5.28,5.75,,47.59359,-54.27349
2018-02-20 15:10:00+00:00,259.0,259.0,4.94,5.48,,47.59359,-54.27349
2018-02-20 15:20:00+00:00,253.0,255.0,5.05,5.77,,47.59359,-54.27349
2018-02-20 15:30:00+00:00,255.0,259.0,4.73,5.33,,47.59359,-54.27349
2018-02-20 15:40:00+00:00,256.0,257.0,5.1,5.53,,47.59359,-54.27349
2018-02-20 15:50:00+00:00,257.0,261.0,5.82,6.16,,47.59359,-54.27349
2018-02-20 16:00:00+00:00,265.0,264.0,5.35,5.94,,47.59359,-54.27349
2018-02-20 16:10:00+00:00,264.0,262.0,5.37,5.81,,47.59359,-54.27349
2018-02-20 16:20:00+00:00,286.0,285.0,4.07,4.56,,47.59359,-54.27349
2018-02-20 16:30:00+00:00,274.0,277.0,4.56,4.84,,47.59359,-54.27349
2018-02-20 16:40:00+00:00,279.0,279.0,2.95,3.31,,47.59359,-54.27349
2018-02-20 16:50:00+00:00,276.0,272.0,2.16,2.57,,47.59359,-54.27349
2018-02-20 17:00:00+00:00,301.0,302.0,2.55,2.92,,47.59359,-54.27349
2018-02-20 17:10:00+00:00,180.0,168.0,1.09,1.65,,47.59359,-54.27349
2018-02-20 17:20:00+00:00,199.0,205.0,3.52,4.09,,47.59359,-54.27349
2018-02-20 17:30:00+00:00,213.0,215.0,3.93,4.4,,47.59359,-54.27349
2018-02-20 17:40:00+00:00,207.0,213.0,3.08,3.61,,47.59359,-54.27349
2018-02-20 17:50:00+00:00,196.0,196.0,4.56,5.05,,47.59359,-54.27349
2018-02-20 18:00:00+00:00,214.0,218.0,4.24,4.74,,47.59359,-54.27349
2018-02-20 18:10:00+00:00,220.0,229.0,3.58,4.38,,47.59359,-54.27349
2018-02-20 18:20:00+00:00,220.0,220.0,3.95,4.24,,47.59359,-54.27349
2018-02-20 18:30:00+00:00,219.0,218.0,4.15,4.4,,47.59359,-54.27349
2018-02-20 18:40:00+00:00,221.0,221.0,4.99,5.63,,47.59359,-54.27349
2018-02-20 18:50:00+00:00,219.0,221.0,4.4,4.74,,47.59359,-54.27349
2018-02-20 19:00:00+00:00,207.0,210.0,3.74,4.01,,47.59359,-54.27349
2018-02-20 19:10:00+00:00,206.0,203.0,3.83,4.24,,47.59359,-54.27349
2018-02-20 19:20:00+00:00,212.0,215.0,3.45,3.84,,47.59359,-54.27349
2018-02-20 19:30:00+00:00,203.0,206.0,3.74,4.02,,47.59359,-54.27349
2018-02-20 19:40:00+00:00,209.0,205.0,4.03,4.3,,47.59359,-54.27349
2018-02-20 19:50:00+00:00,213.0,213.0,4.07,4.41,,47.59359,-54.27349
2018-02-20 20:00:00+00:00,217.0,219.0,4.18,4.54,,47.59359,-54.27349
2018-02-20 20:10:00+00:00,223.0,223.0,2.88,3.3,,47.59359,-54.27349
2018-02-20 20:20:00+00:00,240.0,238.0,2.11,2.38,,47.59359,-54.27349
2018-02-20 20:30:00+00:00,224.0,223.0,2.76,2.89,,47.59359,-54.27349
2018-02-20 20:40:00+00:00,227.0,227.0,2.45,2.95,,47.59359,-54.27349
2018-02-20 20:50:00+00:00,234.0,236.0,2.67,2.94,,47.59359,-54.27349
2018-02-20 21:00:00+00:00,234.0,235.0,2.22,2.41,,47.59359,-54.27349
2018-02-20 21:10:00+00:00,216.0,218.0,1.83,1.98,,47.59359,-54.27349
2018-02-20 21:20:00+00:00,216.0,220.0,1.42,1.53,,47.59359,-54.27349
2018-02-20 21:30:00+00:00,212.0,213.0,1.01,1.11,,47.59359,-54.27349
2018-02-20 21:40:00+00:00,185.0,186.0,1.24,1.43,,47.59359,-54.27349
2018-02-20 21:50:00+00:00,188.0,192.0,1.54,1.65,,47.59359,-54.27349
2018-02-20 22:00:00+00:00,133.0,141.0,0.9,1.2,,47.59359,-54.27349
2018-02-20 22:10:00+00:00,334.0,343.0,0.81,1.15,,47.59359,-54.27349
2018-02-20 22:20:00+00:00,351.0,347.0,1.34,1.7,,47.59359,-54.27349
2018-02-20 22:30:00+00:00,305.0,301.0,0.49,0.83,,47.59359,-54.27349
2018-02-20 22:40:00+00:00,49.0,50.0,8.26,9.82,,47.59359,-54.27349
2018-02-20 22:50:00+00:00,62.0,67.0,15.81,19.04,,47.59359,-54.27349
2018-02-20 23:00:00+00:00,63.0,69.0,14.2,16.04,,47.59359,-54.27349
2018-02-20 23:10:00+00:00,67.0,70.0,13.34,16.58,,47.59359,-54.27349
2018-02-20 23:20:00+00:00,60.0,62.0,14.0,16.03,,47.59359,-54.27349
2018-02-20 23:30:00+00:00,54.0,59.0,11.23,13.99,,47.59359,-54.27349
2018-02-20 23:40:00+00:00,65.0,76.0,14.56,16.71,,47.59359,-54.27349
2018-02-20 23:50:00+00:00,63.0,64.0,14.16,15.88,,47.59359,-54.27349
